Flag for Germany Weather past 2 weeks in Aalen, Baden-Württemberg, Germany

Now
66 °F

Light freezing rain. Overcast.


Feels Like: 66 °F
Forecast: 58 / 88 °F
Wind: 2 mph from West

Location: Oehringen

Current Time: Aug 28, 2015 at 7:33:32 AM

Latest Report: Aug 28, 2015 at 6:00 AM


Visibility: 11 mi

Pressure: 29.98 "Hg

Humidity: 92%

Dew point: 64 °F

Location of AalenLocation

Historic Weather in Aalen — Graph

°F

Aalen temperature yesterday

Maximum temperature yesterday: 89 °F (at 5:00 PM)
Minimum temperature yesterday: 64 °F (at 6:00 AM)
Average temperature yesterday: 76 °F

Past Weeks' High & Low Weather Summary

 TemperatureHumidityPressure
High97 °F (Aug 13, 5:00 PM)99% (Aug 21, 8:00 AM)30.29 "Hg (Aug 21, 8:00 AM)
Low51 °F (Aug 26, 7:00 AM)19% (Aug 13, 6:00 PM)29.68 "Hg (Aug 24, 3:00 PM)
Average67 °F69%29.96 "Hg
* Reported Aug 13 6:00 AM — Aug 28 6:00 AM, Aalen, Weather by CustomWeather, © 2015

Note: Actual official high and low records may vary slightly from our data, if they occured in-between our weather recording intervals... More about our weather records

Advertising

Aalen weather history for previous 24 hours

 ConditionsComfort  
Time TempWeatherWind HumidityBarometerVisibility
6:00 AM
Fri, Aug 28
66 °FLight freezing rain. Overcast.2 mph92%29.98 "Hg11 mi
5:00 AM68 °FLight freezing rain. Overcast.2 mph84%29.97 "Hg10 mi
4:00 AM69 °FOvercast.2 mph78%29.96 "Hg31 mi
3:00 AM70 °FOvercast.3 mph74%29.95 "Hg31 mi
2:00 AM71 °FOvercast.3 mph69%29.91 "Hg37 mi
1:00 AM72 °FOvercast.3 mph60%29.86 "Hg25 mi
11:00 PM
Thu, Aug 27
75 °FOvercast.2 mph51%29.82 "Hg37 mi
10:00 PM78 °FOvercast.2 mph46%29.81 "Hg37 mi
9:00 PM80 °FPassing clouds.1 mph40%29.80 "Hg40 mi
8:00 PM84 °FOvercast.2 mph35%29.79 "Hg37 mi
7:00 PM88 °FPartly sunny.2 mph30%29.78 "Hg43 mi
6:00 PM89 °FPassing clouds.5 mph27%29.78 "Hg43 mi
5:00 PM89 °FSunny.6 mph27%29.79 "Hg37 mi
4:00 PM88 °FPassing clouds.6 mph30%29.81 "Hg22 mi
3:00 PM86 °FPassing clouds.6 mph32%29.83 "Hg31 mi
2:00 PM85 °FPassing clouds.5 mph35%29.85 "Hg34 mi
1:00 PM83 °FSunny.5 mph39%29.87 "Hg43 mi
12:00 PM80 °FSunny.2 mph40%29.90 "Hg31 mi
11:00 AM76 °FSunny.3 mph43%29.93 "Hg43 mi
10:00 AM74 °FSunny.1 mph46%29.93 "Hg37 mi
9:00 AM69 °FSunny.No wind61%29.94 "Hg34 mi
8:00 AM66 °FPassing clouds.1 mph66%29.93 "Hg40 mi
7:00 AM64 °FScattered clouds.1 mph65%29.93 "Hg43 mi
Weather by CustomWeather, © 2015

See weather overviewHow to use our weather pages